owner,sensor,date,latitude,longitude,vertical_datum,mass_concentration_of_oxygen_in_sea_water,qcFlag 
SCCF RECON,ioos:station:SCCF:51:1,2009-10-01T00:00:00Z,26.5545,-82.1715,1.773,7.36,1111122 
SCCF RECON,ioos:station:SCCF:51:1,2009-10-01T01:00:00Z,26.5545,-82.1715,1.884,6.63,1111122 
SCCF RECON,ioos:station:SCCF:51:1,2009-10-01T02:00:00Z,26.5545,-82.1715,1.994,5.8,1111122 
SCCF RECON,ioos:station:SCCF:51:1,2009-10-01T03:00:00Z,26.5545,-82.1715,2.087,5.71,1111122 
SCCF RECON,ioos:station:SCCF:51:1,2009-10-01T04:00:00Z,26.5545,-82.1715,2.154,5.55,1111122 
SCCF RECON,ioos:station:SCCF:51:1,2009-10-01T05:00:00Z,26.5545,-82.1715,2.139,5.08,1111122 
SCCF RECON,ioos:station:SCCF:51:1,2009-10-01T06:00:00Z,26.5545,-82.1715,2.084,5.36,1111122 
SCCF RECON,ioos:station:SCCF:51:1,2009-10-01T07:00:00Z,26.5545,-82.1715,1.992,5.88,1111122 
SCCF RECON,ioos:station:SCCF:51:1,2009-10-01T08:00:00Z,26.5545,-82.1715,1.897,6.04,1111122 
SCCF RECON,ioos:station:SCCF:51:1,2009-10-01T09:00:00Z,26.5545,-82.1715,1.815,6.14,1111122 
SCCF RECON,ioos:station:SCCF:51:1,2009-10-01T10:00:00Z,26.5545,-82.1715,1.805,5.96,1111122 
SCCF RECON,ioos:station:SCCF:51:1,2009-10-01T11:00:00Z,26.5545,-82.1715,1.859,6.0,1111122 
SCCF RECON,ioos:station:SCCF:51:1,2009-10-01T12:00:00Z,26.5545,-82.1715,1.936,5.73,1111122 
SCCF RECON,ioos:station:SCCF:51:1,2009-10-01T13:00:00Z,26.5545,-82.1715,2.01,5.62,1111122 
SCCF RECON,ioos:station:SCCF:51:1,2009-10-01T14:00:00Z,26.5545,-82.1715,2.098,5.27,1111122 
SCCF RECON,ioos:station:SCCF:51:1,2009-10-01T15:00:00Z,26.5545,-82.1715,2.169,5.08,1111122 
SCCF RECON,ioos:station:SCCF:51:1,2009-10-01T16:00:00Z,26.5545,-82.1715,2.192,5.56,1111122 
SCCF RECON,ioos:station:SCCF:51:1,2009-10-01T17:00:00Z,26.5545,-82.1715,2.164,5.98,1111122 
SCCF RECON,ioos:station:SCCF:51:1,2009-10-01T18:00:00Z,26.5545,-82.1715,2.085,6.63,1111122 
SCCF RECON,ioos:station:SCCF:51:1,2009-10-01T19:00:00Z,26.5545,-82.1715,1.99,6.92,1111122 
SCCF RECON,ioos:station:SCCF:51:1,2009-10-01T20:00:00Z,26.5545,-82.1715,1.888,7.35,1111122 
SCCF RECON,ioos:station:SCCF:51:1,2009-10-01T21:00:00Z,26.5545,-82.1715,1.8,7.4,1111122 
SCCF RECON,ioos:station:SCCF:51:1,2009-10-01T22:00:00Z,26.5545,-82.1715,1.741,7.39,1111122 
SCCF RECON,ioos:station:SCCF:51:1,2009-10-01T23:00:00Z,26.5545,-82.1715,1.723,7.29,1111122 
SCCF RECON,ioos:station:SCCF:51:1,2009-10-02T00:00:00Z,26.5545,-82.1715,1.771,7.23,1111122 
SCCF RECON,ioos:station:SCCF:51:1,2009-10-02T01:00:00Z,26.5545,-82.1715,1.86,6.87,1111122 
SCCF RECON,ioos:station:SCCF:51:1,2009-10-02T02:00:00Z,26.5545,-82.1715,1.971,7.08,1111122 
SCCF RECON,ioos:station:SCCF:51:1,2009-10-02T03:00:00Z,26.5545,-82.1715,2.099,6.13,1111122 
SCCF RECON,ioos:station:SCCF:51:1,2009-10-02T04:00:00Z,26.5545,-82.1715,2.177,5.97,1111122 
SCCF RECON,ioos:station:SCCF:51:1,2009-10-02T05:00:00Z,26.5545,-82.1715,2.197,5.87,1111122 
SCCF RECON,ioos:station:SCCF:51:1,2009-10-02T06:00:00Z,26.5545,-82.1715,2.131,5.88,1111122 
SCCF RECON,ioos:station:SCCF:51:1,2009-10-02T07:00:00Z,26.5545,-82.1715,2.029,6.29,1111122 
SCCF RECON,ioos:station:SCCF:51:1,2009-10-02T08:00:00Z,26.5545,-82.1715,1.919,6.37,1111122 
SCCF RECON,ioos:station:SCCF:51:1,2009-10-02T09:00:00Z,26.5545,-82.1715,1.82,6.15,1111122 
SCCF RECON,ioos:station:SCCF:51:1,2009-10-02T10:00:00Z,26.5545,-82.1715,1.77,6.1,1111122 
SCCF RECON,ioos:station:SCCF:51:1,2009-10-02T11:00:00Z,26.5545,-82.1715,1.778,6.0,1111122 
SCCF RECON,ioos:station:SCCF:51:1,2009-10-02T12:00:00Z,26.5545,-82.1715,1.838,5.8,1111122 
SCCF RECON,ioos:station:SCCF:51:1,2009-10-02T13:00:00Z,26.5545,-82.1715,1.93,5.79,1111122 
SCCF RECON,ioos:station:SCCF:51:1,2009-10-02T14:00:00Z,26.5545,-82.1715,2.049,5.52,1111122 
SCCF RECON,ioos:station:SCCF:51:1,2009-10-02T15:00:00Z,26.5545,-82.1715,2.15,5.83,1111122 
SCCF RECON,ioos:station:SCCF:51:1,2009-10-02T16:00:00Z,26.5545,-82.1715,2.214,6.04,1111122 
SCCF RECON,ioos:station:SCCF:51:1,2009-10-02T17:00:00Z,26.5545,-82.1715,2.22,6.56,1111122 
SCCF RECON,ioos:station:SCCF:51:1,2009-10-02T18:00:00Z,26.5545,-82.1715,2.167,6.8,1111122 
SCCF RECON,ioos:station:SCCF:51:1,2009-10-02T19:00:00Z,26.5545,-82.1715,2.07,7.16,1111122 
SCCF RECON,ioos:station:SCCF:51:1,2009-10-02T20:00:00Z,26.5545,-82.1715,1.953,7.02,1111122 
SCCF RECON,ioos:station:SCCF:51:1,2009-10-02T21:00:00Z,26.5545,-82.1715,1.845,7.66,1111122 
SCCF RECON,ioos:station:SCCF:51:1,2009-10-02T22:00:00Z,26.5545,-82.1715,1.763,7.17,1111122 
SCCF RECON,ioos:station:SCCF:51:1,2009-10-02T23:00:00Z,26.5545,-82.1715,1.743,7.4,1111122 
SCCF RECON,ioos:station:SCCF:51:1,2009-10-03T00:00:00Z,26.5545,-82.1715,1.77,7.27,1111122 
SCCF RECON,ioos:station:SCCF:51:1,2009-10-03T01:00:00Z,26.5545,-82.1715,1.85,6.87,1111122 
SCCF RECON,ioos:station:SCCF:51:1,2009-10-03T02:00:00Z,26.5545,-82.1715,1.95,6.96,1111122 
SCCF RECON,ioos:station:SCCF:51:1,2009-10-03T03:00:00Z,26.5545,-82.1715,2.062,6.83,1111122 
SCCF RECON,ioos:station:SCCF:51:1,2009-10-03T04:00:00Z,26.5545,-82.1715,2.15,6.59,1111122 
SCCF RECON,ioos:station:SCCF:51:1,2009-10-03T05:00:00Z,26.5545,-82.1715,2.178,6.18,1111122 
SCCF RECON,ioos:station:SCCF:51:1,2009-10-03T06:00:00Z,26.5545,-82.1715,2.147,5.95,1111122 
SCCF RECON,ioos:station:SCCF:51:1,2009-10-03T07:00:00Z,26.5545,-82.1715,2.07,6.29,1111122 
SCCF RECON,ioos:station:SCCF:51:1,2009-10-03T08:00:00Z,26.5545,-82.1715,1.96,6.24,1111122 
SCCF RECON,ioos:station:SCCF:51:1,2009-10-03T09:00:00Z,26.5545,-82.1715,1.836,6.35,1111122 
SCCF RECON,ioos:station:SCCF:51:1,2009-10-03T10:00:00Z,26.5545,-82.1715,1.728,6.27,1111122 
SCCF RECON,ioos:station:SCCF:51:1,2009-10-03T11:00:00Z,26.5545,-82.1715,1.66,6.21,1111122 
SCCF RECON,ioos:station:SCCF:51:1,2009-10-03T12:00:00Z,26.5545,-82.1715,1.66,6.05,1111122 
SCCF RECON,ioos:station:SCCF:51:1,2009-10-03T13:00:00Z,26.5545,-82.1715,1.755,6.25,1111122 
SCCF RECON,ioos:station:SCCF:51:1,2009-10-03T14:00:00Z,26.5545,-82.1715,1.871,5.59,1111122 
SCCF RECON,ioos:station:SCCF:51:1,2009-10-03T15:00:00Z,26.5545,-82.1715,2.031,5.74,1111122 
SCCF RECON,ioos:station:SCCF:51:1,2009-10-03T16:00:00Z,26.5545,-82.1715,2.146,5.91,1111122 
SCCF RECON,ioos:station:SCCF:51:1,2009-10-03T17:00:00Z,26.5545,-82.1715,2.19,6.39,1111122 
SCCF RECON,ioos:station:SCCF:51:1,2009-10-03T18:00:00Z,26.5545,-82.1715,2.171,6.53,1111122 
SCCF RECON,ioos:station:SCCF:51:1,2009-10-03T19:00:00Z,26.5545,-82.1715,2.108,6.95,1111122 
SCCF RECON,ioos:station:SCCF:51:1,2009-10-03T20:00:00Z,26.5545,-82.1715,2.01,7.19,1111122 
SCCF RECON,ioos:station:SCCF:51:1,2009-10-03T21:00:00Z,26.5545,-82.1715,1.902,7.49,1111122 
SCCF RECON,ioos:station:SCCF:51:1,2009-10-03T22:00:00Z,26.5545,-82.1715,1.819,7.5,1111122 
SCCF RECON,ioos:station:SCCF:51:1,2009-10-03T23:00:00Z,26.5545,-82.1715,1.76,7.32,1111122 
SCCF RECON,ioos:station:SCCF:51:1,2009-10-04T00:00:00Z,26.5545,-82.1715,1.762,7.26,1111122 
SCCF RECON,ioos:station:SCCF:51:1,2009-10-04T01:00:00Z,26.5545,-82.1715,1.83,6.96,1111122 
SCCF RECON,ioos:station:SCCF:51:1,2009-10-04T02:00:00Z,26.5545,-82.1715,1.928,6.63,1111122 
SCCF RECON,ioos:station:SCCF:51:1,2009-10-04T03:00:00Z,26.5545,-82.1715,2.061,6.19,1111122 
SCCF RECON,ioos:station:SCCF:51:1,2009-10-04T04:00:00Z,26.5545,-82.1715,2.17,6.03,1111122 
SCCF RECON,ioos:station:SCCF:51:1,2009-10-04T05:00:00Z,26.5545,-82.1715,2.215,5.82,1111122 
SCCF RECON,ioos:station:SCCF:51:1,2009-10-04T06:00:00Z,26.5545,-82.1715,2.192,5.82,1111122 
SCCF RECON,ioos:station:SCCF:51:1,2009-10-04T07:00:00Z,26.5545,-82.1715,2.11,5.85,1111122 
SCCF RECON,ioos:station:SCCF:51:1,2009-10-04T08:00:00Z,26.5545,-82.1715,2.0,5.99,1111122 
SCCF RECON,ioos:station:SCCF:51:1,2009-10-04T09:00:00Z,26.5545,-82.1715,1.869,6.36,1111122 
SCCF RECON,ioos:station:SCCF:51:1,2009-10-04T10:00:00Z,26.5545,-82.1715,1.745,6.4,1111122 
SCCF RECON,ioos:station:SCCF:51:1,2009-10-04T11:00:00Z,26.5545,-82.1715,1.64,6.37,1111122 
SCCF RECON,ioos:station:SCCF:51:1,2009-10-04T12:00:00Z,26.5545,-82.1715,1.589,5.95,1111122 
SCCF RECON,ioos:station:SCCF:51:1,2009-10-04T13:00:00Z,26.5545,-82.1715,1.627,6.09,1111122 
SCCF RECON,ioos:station:SCCF:51:1,2009-10-04T14:00:00Z,26.5545,-82.1715,1.73,6.25,1111122 
SCCF RECON,ioos:station:SCCF:51:1,2009-10-04T15:00:00Z,26.5545,-82.1715,1.876,5.46,1111122 
SCCF RECON,ioos:station:SCCF:51:1,2009-10-04T16:00:00Z,26.5545,-82.1715,2.029,5.6,1111122 
SCCF RECON,ioos:station:SCCF:51:1,2009-10-04T17:00:00Z,26.5545,-82.1715,2.12,5.93,1111122 
SCCF RECON,ioos:station:SCCF:51:1,2009-10-04T18:00:00Z,26.5545,-82.1715,2.147,6.05,1111122 
SCCF RECON,ioos:station:SCCF:51:1,2009-10-04T19:00:00Z,26.5545,-82.1715,2.118,6.37,1111122 
SCCF RECON,ioos:station:SCCF:51:1,2009-10-04T20:00:00Z,26.5545,-82.1715,2.054,6.81,1111122 
SCCF RECON,ioos:station:SCCF:51:1,2009-10-04T21:00:00Z,26.5545,-82.1715,1.984,7.11,1111122 
SCCF RECON,ioos:station:SCCF:51:1,2009-10-04T22:00:00Z,26.5545,-82.1715,1.913,7.4,1111122 
SCCF RECON,ioos:station:SCCF:51:1,2009-10-04T23:00:00Z,26.5545,-82.1715,1.859,7.5,1111122 
SCCF RECON,ioos:station:SCCF:51:1,2009-10-05T00:00:00Z,26.5545,-82.1715,1.84,7.28,1111122 
SCCF RECON,ioos:station:SCCF:51:1,2009-10-05T01:00:00Z,26.5545,-82.1715,1.889,7.3,1111122 
SCCF RECON,ioos:station:SCCF:51:1,2009-10-05T02:00:00Z,26.5545,-82.1715,1.96,6.93,1111122 
SCCF RECON,ioos:station:SCCF:51:1,2009-10-05T03:00:00Z,26.5545,-82.1715,2.07,6.44,1111122 
SCCF RECON,ioos:station:SCCF:51:1,2009-10-05T04:00:00Z,26.5545,-82.1715,2.192,6.22,1111122 
SCCF RECON,ioos:station:SCCF:51:1,2009-10-05T05:00:00Z,26.5545,-82.1715,2.257,5.92,1111122 
SCCF RECON,ioos:station:SCCF:51:1,2009-10-05T06:00:00Z,26.5545,-82.1715,2.244,5.9,1111122 
SCCF RECON,ioos:station:SCCF:51:1,2009-10-05T07:00:00Z,26.5545,-82.1715,2.182,6.08,1111122 
SCCF RECON,ioos:station:SCCF:51:1,2009-10-05T08:00:00Z,26.5545,-82.1715,2.092,6.48,1111122 
SCCF RECON,ioos:station:SCCF:51:1,2009-10-05T09:00:00Z,26.5545,-82.1715,1.974,6.29,1111122 
SCCF RECON,ioos:station:SCCF:51:1,2009-10-05T10:00:00Z,26.5545,-82.1715,1.838,5.93,1111122 
SCCF RECON,ioos:station:SCCF:51:1,2009-10-05T11:00:00Z,26.5545,-82.1715,1.718,5.29,1111122 
SCCF RECON,ioos:station:SCCF:51:1,2009-10-05T12:00:00Z,26.5545,-82.1715,1.623,4.97,1111122 
SCCF RECON,ioos:station:SCCF:51:1,2009-10-05T13:00:00Z,26.5545,-82.1715,1.584,5.17,1111122 
SCCF RECON,ioos:station:SCCF:51:1,2009-10-05T14:00:00Z,26.5545,-82.1715,1.663,5.24,1111122 
SCCF RECON,ioos:station:SCCF:51:1,2009-10-05T15:00:00Z,26.5545,-82.1715,1.794,5.63,1111122 
SCCF RECON,ioos:station:SCCF:51:1,2009-10-05T16:00:00Z,26.5545,-82.1715,1.964,5.61,1111122 
SCCF RECON,ioos:station:SCCF:51:1,2009-10-05T17:00:00Z,26.5545,-82.1715,2.09,5.84,1111122 
SCCF RECON,ioos:station:SCCF:51:1,2009-10-05T18:00:00Z,26.5545,-82.1715,2.145,5.96,1111122 
SCCF RECON,ioos:station:SCCF:51:1,2009-10-05T19:00:00Z,26.5545,-82.1715,2.146,5.87,1111122 
SCCF RECON,ioos:station:SCCF:51:1,2009-10-05T20:00:00Z,26.5545,-82.1715,2.095,6.1,1111122 
SCCF RECON,ioos:station:SCCF:51:1,2009-10-05T21:00:00Z,26.5545,-82.1715,2.055,6.4,1111122 
SCCF RECON,ioos:station:SCCF:51:1,2009-10-05T22:00:00Z,26.5545,-82.1715,1.965,6.79,1111122 
SCCF RECON,ioos:station:SCCF:51:1,2009-10-05T23:00:00Z,26.5545,-82.1715,1.909,6.76,1111122 
SCCF RECON,ioos:station:SCCF:51:1,2009-10-06T00:00:00Z,26.5545,-82.1715,1.87,6.83,1111122 
SCCF RECON,ioos:station:SCCF:51:1,2009-10-06T01:00:00Z,26.5545,-82.1715,1.9,6.7,1111122 
SCCF RECON,ioos:station:SCCF:51:1,2009-10-06T02:00:00Z,26.5545,-82.1715,1.95,6.59,1111122 
SCCF RECON,ioos:station:SCCF:51:1,2009-10-06T03:00:00Z,26.5545,-82.1715,2.04,6.11,1111122 
SCCF RECON,ioos:station:SCCF:51:1,2009-10-06T04:00:00Z,26.5545,-82.1715,2.151,5.86,1111122 
SCCF RECON,ioos:station:SCCF:51:1,2009-10-06T05:00:00Z,26.5545,-82.1715,2.25,5.71,1111122 
SCCF RECON,ioos:station:SCCF:51:1,2009-10-06T06:00:00Z,26.5545,-82.1715,2.28,5.53,1111122 
SCCF RECON,ioos:station:SCCF:51:1,2009-10-06T07:00:00Z,26.5545,-82.1715,2.24,5.52,1111122 
SCCF RECON,ioos:station:SCCF:51:1,2009-10-06T08:00:00Z,26.5545,-82.1715,2.16,5.5,1111122 
SCCF RECON,ioos:station:SCCF:51:1,2009-10-06T09:00:00Z,26.5545,-82.1715,2.05,5.61,1111122 
SCCF RECON,ioos:station:SCCF:51:1,2009-10-06T10:00:00Z,26.5545,-82.1715,1.917,5.93,1111122 
SCCF RECON,ioos:station:SCCF:51:1,2009-10-06T11:00:00Z,26.5545,-82.1715,1.779,5.64,1111122 
SCCF RECON,ioos:station:SCCF:51:1,2009-10-06T12:00:00Z,26.5545,-82.1715,1.66,5.83,1111122 
SCCF RECON,ioos:station:SCCF:51:1,2009-10-06T13:00:00Z,26.5545,-82.1715,1.57,5.26,1111122 
SCCF RECON,ioos:station:SCCF:51:1,2009-10-06T14:00:00Z,26.5545,-82.1715,1.565,5.08,1111122 
SCCF RECON,ioos:station:SCCF:51:1,2009-10-06T15:00:00Z,26.5545,-82.1715,1.651,5.37,1111122 
SCCF RECON,ioos:station:SCCF:51:1,2009-10-06T16:00:00Z,26.5545,-82.1715,1.787,5.47,1111122 
SCCF RECON,ioos:station:SCCF:51:1,2009-10-06T17:00:00Z,26.5545,-82.1715,1.949,5.17,1111122 
SCCF RECON,ioos:station:SCCF:51:1,2009-10-06T18:00:00Z,26.5545,-82.1715,2.057,5.3,1111122 
SCCF RECON,ioos:station:SCCF:51:1,2009-10-06T19:00:00Z,26.5545,-82.1715,2.111,5.82,1111122 
SCCF RECON,ioos:station:SCCF:51:1,2009-10-06T20:00:00Z,26.5545,-82.1715,2.107,5.93,1111122 
SCCF RECON,ioos:station:SCCF:51:1,2009-10-06T21:00:00Z,26.5545,-82.1715,2.061,6.18,1111122 
SCCF RECON,ioos:station:SCCF:51:1,2009-10-06T22:00:00Z,26.5545,-82.1715,2.0,6.98,1111122 
SCCF RECON,ioos:station:SCCF:51:1,2009-10-06T23:00:00Z,26.5545,-82.1715,1.95,7.16,1111122 
SCCF RECON,ioos:station:SCCF:51:1,2009-10-07T00:00:00Z,26.5545,-82.1715,1.93,7.01,1111122 
SCCF RECON,ioos:station:SCCF:51:1,2009-10-07T01:00:00Z,26.5545,-82.1715,1.97,6.81,1111122 
SCCF RECON,ioos:station:SCCF:51:1,2009-10-07T02:00:00Z,26.5545,-82.1715,2.02,6.52,1111122 
SCCF RECON,ioos:station:SCCF:51:1,2009-10-07T03:00:00Z,26.5545,-82.1715,2.09,5.94,1111122 
SCCF RECON,ioos:station:SCCF:51:1,2009-10-07T04:00:00Z,26.5545,-82.1715,2.189,5.84,1111122 
SCCF RECON,ioos:station:SCCF:51:1,2009-10-07T05:00:00Z,26.5545,-82.1715,2.28,5.74,1111122 
SCCF RECON,ioos:station:SCCF:51:1,2009-10-07T06:00:00Z,26.5545,-82.1715,2.323,5.54,1111122 
SCCF RECON,ioos:station:SCCF:51:1,2009-10-07T07:00:00Z,26.5545,-82.1715,2.32,5.52,1111122 
SCCF RECON,ioos:station:SCCF:51:1,2009-10-07T08:00:00Z,26.5545,-82.1715,2.254,5.6,1111122 
SCCF RECON,ioos:station:SCCF:51:1,2009-10-07T09:00:00Z,26.5545,-82.1715,2.15,5.59,1111122 
SCCF RECON,ioos:station:SCCF:51:1,2009-10-07T10:00:00Z,26.5545,-82.1715,2.03,5.44,1111122 
SCCF RECON,ioos:station:SCCF:51:1,2009-10-07T11:00:00Z,26.5545,-82.1715,1.9,5.35,1111122 
SCCF RECON,ioos:station:SCCF:51:1,2009-10-07T12:00:00Z,26.5545,-82.1715,1.78,5.3,1111122 
SCCF RECON,ioos:station:SCCF:51:1,2009-10-07T13:00:00Z,26.5545,-82.1715,1.678,5.22,1111122 
SCCF RECON,ioos:station:SCCF:51:1,2009-10-07T14:00:00Z,26.5545,-82.1715,1.6,5.61,1111122 
SCCF RECON,ioos:station:SCCF:51:1,2009-10-07T15:00:00Z,26.5545,-82.1715,1.619,5.54,1111122 
SCCF RECON,ioos:station:SCCF:51:1,2009-10-07T16:00:00Z,26.5545,-82.1715,1.7,5.99,1111122 
SCCF RECON,ioos:station:SCCF:51:1,2009-10-07T17:00:00Z,26.5545,-82.1715,1.819,5.6,1111122 
SCCF RECON,ioos:station:SCCF:51:1,2009-10-07T18:00:00Z,26.5545,-82.1715,1.94,5.26,1111122 
SCCF RECON,ioos:station:SCCF:51:1,2009-10-07T19:00:00Z,26.5545,-82.1715,2.019,5.7,1111122 
SCCF RECON,ioos:station:SCCF:51:1,2009-10-07T20:00:00Z,26.5545,-82.1715,2.048,5.84,1111122 
SCCF RECON,ioos:station:SCCF:51:1,2009-10-07T21:00:00Z,26.5545,-82.1715,2.046,6.22,1111122 
SCCF RECON,ioos:station:SCCF:51:1,2009-10-07T22:00:00Z,26.5545,-82.1715,2.006,6.43,1111122 
SCCF RECON,ioos:station:SCCF:51:1,2009-10-07T23:00:00Z,26.5545,-82.1715,1.97,6.78,1111122 
SCCF RECON,ioos:station:SCCF:51:1,2009-10-08T00:00:00Z,26.5545,-82.1715,1.934,6.81,1111122 
SCCF RECON,ioos:station:SCCF:51:1,2009-10-08T01:00:00Z,26.5545,-82.1715,1.925,6.71,1111122 
SCCF RECON,ioos:station:SCCF:51:1,2009-10-08T02:00:00Z,26.5545,-82.1715,1.96,6.76,1111122 
SCCF RECON,ioos:station:SCCF:51:1,2009-10-08T03:00:00Z,26.5545,-82.1715,2.016,6.73,1111122 
SCCF RECON,ioos:station:SCCF:51:1,2009-10-08T04:00:00Z,26.5545,-82.1715,2.091,5.7,1111122 
SCCF RECON,ioos:station:SCCF:51:1,2009-10-08T05:00:00Z,26.5545,-82.1715,2.181,5.47,1111122 
SCCF RECON,ioos:station:SCCF:51:1,2009-10-08T06:00:00Z,26.5545,-82.1715,2.253,5.37,1111122 
SCCF RECON,ioos:station:SCCF:51:1,2009-10-08T07:00:00Z,26.5545,-82.1715,2.269,5.06,1111122 
SCCF RECON,ioos:station:SCCF:51:1,2009-10-08T08:00:00Z,26.5545,-82.1715,2.221,5.01,1111122 
SCCF RECON,ioos:station:SCCF:51:1,2009-10-08T09:00:00Z,26.5545,-82.1715,2.149,5.22,1111122 
SCCF RECON,ioos:station:SCCF:51:1,2009-10-08T10:00:00Z,26.5545,-82.1715,2.052,5.37,1111122 
SCCF RECON,ioos:station:SCCF:51:1,2009-10-08T11:00:00Z,26.5545,-82.1715,1.94,5.41,1111122 
SCCF RECON,ioos:station:SCCF:51:1,2009-10-08T12:00:00Z,26.5545,-82.1715,1.813,5.47,1111122 
SCCF RECON,ioos:station:SCCF:51:1,2009-10-08T13:00:00Z,26.5545,-82.1715,1.697,5.29,1111122 
SCCF RECON,ioos:station:SCCF:51:1,2009-10-08T14:00:00Z,26.5545,-82.1715,1.595,5.33,1111122 
SCCF RECON,ioos:station:SCCF:51:1,2009-10-08T15:00:00Z,26.5545,-82.1715,1.52,5.63,1111122 
SCCF RECON,ioos:station:SCCF:51:1,2009-10-08T16:00:00Z,26.5545,-82.1715,1.531,5.92,1111122 
SCCF RECON,ioos:station:SCCF:51:1,2009-10-08T17:00:00Z,26.5545,-82.1715,1.616,6.09,1111122 
SCCF RECON,ioos:station:SCCF:51:1,2009-10-08T18:00:00Z,26.5545,-82.1715,1.73,6.07,1111122 
SCCF RECON,ioos:station:SCCF:51:1,2009-10-08T19:00:00Z,26.5545,-82.1715,1.84,5.57,1111122 
SCCF RECON,ioos:station:SCCF:51:1,2009-10-08T20:00:00Z,26.5545,-82.1715,1.927,5.72,1111122 
SCCF RECON,ioos:station:SCCF:51:1,2009-10-08T21:00:00Z,26.5545,-82.1715,1.98,5.86,1111122 
SCCF RECON,ioos:station:SCCF:51:1,2009-10-08T22:00:00Z,26.5545,-82.1715,1.999,6.1,1111122 
SCCF RECON,ioos:station:SCCF:51:1,2009-10-08T23:00:00Z,26.5545,-82.1715,1.979,6.29,1111122 
SCCF RECON,ioos:station:SCCF:51:1,2009-10-09T00:00:00Z,26.5545,-82.1715,1.959,6.4,1111122 
SCCF RECON,ioos:station:SCCF:51:1,2009-10-09T01:00:00Z,26.5545,-82.1715,1.95,6.56,1111122 
SCCF RECON,ioos:station:SCCF:51:1,2009-10-09T02:00:00Z,26.5545,-82.1715,1.98,6.56,1111122 
SCCF RECON,ioos:station:SCCF:51:1,2009-10-09T03:00:00Z,26.5545,-82.1715,2.04,6.29,1111122 
SCCF RECON,ioos:station:SCCF:51:1,2009-10-09T04:00:00Z,26.5545,-82.1715,2.102,5.83,1111122 
SCCF RECON,ioos:station:SCCF:51:1,2009-10-09T05:00:00Z,26.5545,-82.1715,2.176,5.94,1111122 
SCCF RECON,ioos:station:SCCF:51:1,2009-10-09T06:00:00Z,26.5545,-82.1715,2.222,5.59,1111122 
SCCF RECON,ioos:station:SCCF:51:1,2009-10-09T07:00:00Z,26.5545,-82.1715,2.249,5.83,1111122 
SCCF RECON,ioos:station:SCCF:51:1,2009-10-09T08:00:00Z,26.5545,-82.1715,2.245,5.45,1111122 
SCCF RECON,ioos:station:SCCF:51:1,2009-10-09T09:00:00Z,26.5545,-82.1715,2.214,5.59,1111122 
SCCF RECON,ioos:station:SCCF:51:1,2009-10-09T10:00:00Z,26.5545,-82.1715,2.165,5.58,1111122 
SCCF RECON,ioos:station:SCCF:51:1,2009-10-09T11:00:00Z,26.5545,-82.1715,2.087,5.44,1111122 
SCCF RECON,ioos:station:SCCF:51:1,2009-10-09T12:00:00Z,26.5545,-82.1715,1.986,5.35,1111122 
SCCF RECON,ioos:station:SCCF:51:1,2009-10-09T13:00:00Z,26.5545,-82.1715,1.869,5.03,1111122 
SCCF RECON,ioos:station:SCCF:51:1,2009-10-09T14:00:00Z,26.5545,-82.1715,1.75,4.97,1111122 
SCCF RECON,ioos:station:SCCF:51:1,2009-10-09T15:00:00Z,26.5545,-82.1715,1.648,5.08,1111122 
SCCF RECON,ioos:station:SCCF:51:1,2009-10-09T16:00:00Z,26.5545,-82.1715,1.58,5.65,1111122 
SCCF RECON,ioos:station:SCCF:51:1,2009-10-09T17:00:00Z,26.5545,-82.1715,1.599,6.24,1111122 
SCCF RECON,ioos:station:SCCF:51:1,2009-10-09T18:00:00Z,26.5545,-82.1715,1.673,6.58,1111122 
SCCF RECON,ioos:station:SCCF:51:1,2009-10-09T19:00:00Z,26.5545,-82.1715,1.773,6.36,1111122 
SCCF RECON,ioos:station:SCCF:51:1,2009-10-09T20:00:00Z,26.5545,-82.1715,1.86,6.37,1111122 
SCCF RECON,ioos:station:SCCF:51:1,2009-10-09T21:00:00Z,26.5545,-82.1715,1.92,6.27,1111122 
SCCF RECON,ioos:station:SCCF:51:1,2009-10-09T22:00:00Z,26.5545,-82.1715,1.958,6.47,1111122 
SCCF RECON,ioos:station:SCCF:51:1,2009-10-09T23:00:00Z,26.5545,-82.1715,1.98,6.66,1111122 
SCCF RECON,ioos:station:SCCF:51:1,2009-10-10T00:00:00Z,26.5545,-82.1715,2.004,6.62,1111122 
SCCF RECON,ioos:station:SCCF:51:1,2009-10-10T01:00:00Z,26.5545,-82.1715,2.005,6.7,1111122 
SCCF RECON,ioos:station:SCCF:51:1,2009-10-10T02:00:00Z,26.5545,-82.1715,2.001,6.65,1111122 
SCCF RECON,ioos:station:SCCF:51:1,2009-10-10T03:00:00Z,26.5545,-82.1715,2.014,6.65,1111122 
SCCF RECON,ioos:station:SCCF:51:1,2009-10-10T04:00:00Z,26.5545,-82.1715,2.064,6.61,1111122 
SCCF RECON,ioos:station:SCCF:51:1,2009-10-10T05:00:00Z,26.5545,-82.1715,2.099,6.53,1111122 
SCCF RECON,ioos:station:SCCF:51:1,2009-10-10T06:00:00Z,26.5545,-82.1715,2.159,5.34,1111122 
SCCF RECON,ioos:station:SCCF:51:1,2009-10-10T07:00:00Z,26.5545,-82.1715,2.213,5.12,1111122 
SCCF RECON,ioos:station:SCCF:51:1,2009-10-10T08:00:00Z,26.5545,-82.1715,2.237,5.04,1111122 
SCCF RECON,ioos:station:SCCF:51:1,2009-10-10T09:00:00Z,26.5545,-82.1715,2.224,4.7,1111122 
SCCF RECON,ioos:station:SCCF:51:1,2009-10-10T10:00:00Z,26.5545,-82.1715,2.19,4.45,1111122 
SCCF RECON,ioos:station:SCCF:51:1,2009-10-10T11:00:00Z,26.5545,-82.1715,2.15,5.15,1111122 
SCCF RECON,ioos:station:SCCF:51:1,2009-10-10T12:00:00Z,26.5545,-82.1715,2.077,5.63,1111122 
SCCF RECON,ioos:station:SCCF:51:1,2009-10-10T13:00:00Z,26.5545,-82.1715,1.983,5.37,1111122 
SCCF RECON,ioos:station:SCCF:51:1,2009-10-10T14:00:00Z,26.5545,-82.1715,1.871,4.67,1111122 
SCCF RECON,ioos:station:SCCF:51:1,2009-10-10T15:00:00Z,26.5545,-82.1715,1.75,4.98,1111122 
SCCF RECON,ioos:station:SCCF:51:1,2009-10-10T16:00:00Z,26.5545,-82.1715,1.651,5.09,1111122 
SCCF RECON,ioos:station:SCCF:51:1,2009-10-10T17:00:00Z,26.5545,-82.1715,1.58,5.61,1111122 
SCCF RECON,ioos:station:SCCF:51:1,2009-10-10T18:00:00Z,26.5545,-82.1715,1.6,6.02,1111122 
SCCF RECON,ioos:station:SCCF:51:1,2009-10-10T19:00:00Z,26.5545,-82.1715,1.679,6.23,1111122 
SCCF RECON,ioos:station:SCCF:51:1,2009-10-10T20:00:00Z,26.5545,-82.1715,1.77,6.98,1111122 
SCCF RECON,ioos:station:SCCF:51:1,2009-10-10T21:00:00Z,26.5545,-82.1715,1.848,6.75,1111122 
SCCF RECON,ioos:station:SCCF:51:1,2009-10-10T22:00:00Z,26.5545,-82.1715,1.913,6.61,1111122 
SCCF RECON,ioos:station:SCCF:51:1,2009-10-10T23:00:00Z,26.5545,-82.1715,1.962,6.4,1111122 
SCCF RECON,ioos:station:SCCF:51:1,2009-10-11T00:00:00Z,26.5545,-82.1715,2.0,6.09,1111122 
SCCF RECON,ioos:station:SCCF:51:1,2009-10-11T01:00:00Z,26.5545,-82.1715,2.04,6.42,1111122 
SCCF RECON,ioos:station:SCCF:51:1,2009-10-11T02:00:00Z,26.5545,-82.1715,2.049,6.18,1111122 
SCCF RECON,ioos:station:SCCF:51:1,2009-10-11T03:00:00Z,26.5545,-82.1715,2.039,6.27,1111122 
SCCF RECON,ioos:station:SCCF:51:1,2009-10-11T04:00:00Z,26.5545,-82.1715,2.03,6.15,1111122 
SCCF RECON,ioos:station:SCCF:51:1,2009-10-11T05:00:00Z,26.5545,-82.1715,2.048,6.19,1111122 
SCCF RECON,ioos:station:SCCF:51:1,2009-10-11T06:00:00Z,26.5545,-82.1715,2.08,5.85,1111122 
SCCF RECON,ioos:station:SCCF:51:1,2009-10-11T07:00:00Z,26.5545,-82.1715,2.1,5.97,1111122 
SCCF RECON,ioos:station:SCCF:51:1,2009-10-11T08:00:00Z,26.5545,-82.1715,2.13,5.69,1111122 
SCCF RECON,ioos:station:SCCF:51:1,2009-10-11T09:00:00Z,26.5545,-82.1715,2.17,6.15,1111122 
SCCF RECON,ioos:station:SCCF:51:1,2009-10-11T10:00:00Z,26.5545,-82.1715,2.18,5.77,1111122 
SCCF RECON,ioos:station:SCCF:51:1,2009-10-11T11:00:00Z,26.5545,-82.1715,2.163,4.87,1111122 
SCCF RECON,ioos:station:SCCF:51:1,2009-10-11T12:00:00Z,26.5545,-82.1715,2.14,5.14,1111122 
SCCF RECON,ioos:station:SCCF:51:1,2009-10-11T13:00:00Z,26.5545,-82.1715,2.08,4.94,1111122 
SCCF RECON,ioos:station:SCCF:51:1,2009-10-11T14:00:00Z,26.5545,-82.1715,1.989,4.89,1111122 
SCCF RECON,ioos:station:SCCF:51:1,2009-10-11T15:00:00Z,26.5545,-82.1715,1.868,5.42,1111122 
SCCF RECON,ioos:station:SCCF:51:1,2009-10-11T16:00:00Z,26.5545,-82.1715,1.751,6.18,1111122 
SCCF RECON,ioos:station:SCCF:51:1,2009-10-11T17:00:00Z,26.5545,-82.1715,1.641,6.44,1111122 
SCCF RECON,ioos:station:SCCF:51:1,2009-10-11T18:00:00Z,26.5545,-82.1715,1.556,6.12,1111122 
SCCF RECON,ioos:station:SCCF:51:1,2009-10-11T19:00:00Z,26.5545,-82.1715,1.545,6.37,1111122 
SCCF RECON,ioos:station:SCCF:51:1,2009-10-11T20:00:00Z,26.5545,-82.1715,1.603,6.51,1111122 